Comodoro Rivadavia, Argentina

10:57 AM America en Noviembre 24, 2017 (GMT +0000)
GEN. Enrique Mosconi International

Tiempo Historia de SAVC - Noviembre, 2017

Change the Weather History Date:

Martes, Noviembre 14, 2017

  Actual Average Record
Temperature  
Temperatura media 62 ° F -  
Temperatura máxima 72 ° F 74 ° F 89 ° F (2012)
Temperatura mínima 52 ° F 51 ° F 37 ° F (2007)
Degree Days  
Grados día de calefacción 3    
Growing Degree Days 12 (Base 50)    
Moisture  
Punto de rocío 35 ° F    
Average Humidity 35    
Maximum Humidity 63    
Minimum Humidity 17    
Precipitación  
Precipitación 0.00 pul 0.02 pul - ()
Presión al nivel del mar  
Presión al nivel del mar 29.61 pul    
Viento  
Velocidad del viento 20 mph ()    
Velocidad máxima del viento 34 mph    
Max Gust Speed 55 mph    
Visibilidad 10.1 Millas    
Eventos      
Averages and records for this station are not official NWS values.
T = Trace of Precipitation, MM = Missing Value Source: Averaged Metar Reports

Daily Weather History Graph

Daily Weather History Graph

Search for Another Location

Airport or City:

Trip Planner

Search our weather history database for the weather conditions in past years. The results will help you decide how hot, cold, wet, or windy it might be!

Date:

Astronomía

Nov. 14, 2017 Salida Puesta
Hora real 5:49 AM -03 8:40 PM -03
Crepúsculo civil 5:15 AM -03 9:14 PM -03
Crepúsculo náutico 4:31 AM -03 9:59 PM -03
Crepúsculo astronómico 3:39 AM -03 10:51 PM -03
Luna 4:24 AM -03 (11/14) 4:41 PM -03 (11/14)
Horas de luz 15h 59m
Horas de luz
14h 50m
Creciente menguante, 14% of the Moon is Illuminated
Nov 14
Creciente menguante
Nov 18
Nueva
Nov 26
Cuarto creciente
Dic 3
Luna llena
Dic 10
Cuarto menguante

Hourly Weather History & Observations

Hora (-03) Temp. Punto de rocío Humedad Presión Visibilidad Wind Dir Velocidad del viento Velocidad de ráfagas Precip Eventos Condiciones
12:00 AM 62 ° F 34 ° F 24% 29.57 pul 12 mi ONO 27.6 mph - -   Viento de arena
12:00 AM 62.6 ° F 33.8 ° F 34% 29.59 pul - ONO 27.6 mph 42.6 mph N/A   Despejado
1:00 AM 59.0 ° F 37.4 ° F 45% 29.62 pul - ONO 11.5 mph - N/A   Despejado
2:00 AM 57.2 ° F 35.6 ° F 44% 29.62 pul - Oeste 10.4 mph - N/A   Despejado
3:00 AM 55 ° F 38 ° F 40% 29.59 pul 19 mi Oeste 11.5 mph - -   Despejado
3:00 AM 55.4 ° F 37.4 ° F 51% 29.62 pul - Oeste 11.5 mph - N/A   Despejado
4:00 AM 53.6 ° F 33.8 ° F 47% 29.59 pul - Oeste 26.5 mph - N/A   Despejado
5:00 AM 53.6 ° F 30.2 ° F 41% 29.56 pul - Oeste 32.2 mph 47.2 mph N/A   Despejado
6:00 AM 53 ° F 31 ° F 30% 29.51 pul 9 mi Oeste 34.5 mph - -   Viento de arena
6:00 AM 53.6 ° F 30.2 ° F 41% 29.53 pul - Oeste 34.5 mph 47.2 mph N/A   Despejado
7:00 AM 53.6 ° F 32.0 ° F 44% 29.56 pul - Oeste 33.4 mph 50.6 mph N/A   Despejado
8:00 AM 55.4 ° F 32.0 ° F 41% 29.56 pul - Oeste 33.4 mph 55.2 mph N/A   Despejado
9:00 AM 58 ° F 32 ° F 25% 29.55 pul 12 mi ONO 29.9 mph - -   Viento de arena
9:00 AM 59.0 ° F 32.0 ° F 36% 29.59 pul - ONO 29.9 mph 41.4 mph N/A   Despejado
9:15 AM 59.0 ° F 32.0 ° F 36% 29.59 pul - Oeste 34.5 mph 55.2 mph N/A   Despejado
10:00 AM 62.6 ° F 30.2 ° F 30% 29.59 pul 6.2 mi Oeste 26.5 mph 41.4 mph N/A   Parcialmente nublado
11:00 AM 64.4 ° F 33.8 ° F 32% 29.62 pul 6.2 mi Oeste 23.0 mph 34.5 mph N/A   Parcialmente nublado
12:00 PM 66 ° F 32 ° F 17% 29.57 pul 19 mi Oeste 26.5 mph - -   Nubes dispersas
12:00 PM 66.2 ° F 32.0 ° F 28% 29.59 pul 6.2 mi Oeste 26.5 mph 38.0 mph N/A   Parcialmente nublado
1:00 PM 68.0 ° F 35.6 ° F 30% 29.59 pul 6.2 mi OSO 20.7 mph - N/A   Desconocido
2:00 PM 68.0 ° F 35.6 ° F 30% 29.62 pul 6.2 mi SO 18.4 mph - N/A   Nubes dispersas
3:00 PM 68 ° F 36 ° F 19% 29.59 pul 19 mi SO 19.6 mph - -   Muy nublado
3:00 PM 68.0 ° F 35.6 ° F 30% 29.62 pul 6.2 mi SO 19.6 mph - N/A   Muy nublado
4:00 PM 68.0 ° F 37.4 ° F 33% 29.62 pul 6.2 mi Oeste 15.0 mph 26.5 mph N/A   Nubes dispersas
5:00 PM 68.0 ° F 35.6 ° F 30% 29.62 pul 6.2 mi SO 17.3 mph - N/A   Muy nublado
6:00 PM 67 ° F 35 ° F 20% 29.61 pul 19 mi OSO 13.8 mph - -   Muy nublado
6:00 PM 68.0 ° F 35.6 ° F 30% 29.65 pul - OSO 13.8 mph - N/A   Despejado
7:00 PM 66.2 ° F 37.4 ° F 35% 29.65 pul 6.2 mi OSO 10.4 mph - N/A   Muy nublado
8:00 PM 66.2 ° F 39.2 ° F 37% 29.68 pul 6.2 mi OSO 11.5 mph - N/A   Muy nublado
9:00 PM 65 ° F 36 ° F 23% 29.66 pul 19 mi Oeste 11.5 mph - -   Nubes dispersas
9:00 PM 64.4 ° F 35.6 ° F 34% 29.68 pul 6.2 mi Oeste 11.5 mph - N/A   Muy nublado
10:00 PM 60.8 ° F 42.8 ° F 52% 29.71 pul 6.2 mi SE 4.6 mph - N/A   Nubes dispersas
11:00 PM 57.2 ° F 44.6 ° F 63% 29.74 pul - NE 2.3 mph - N/A   Despejado